Regional Weather Roundup
Issued by NWS Sioux Falls, SD

Home | Current Version | Previous Version | Text Only | Print | Product List | Glossary On
Versions: 1 2 3 4 5 6 7 8 9 10 11 12 13 14 15 16 17 18 19 20 21 22 23 24 25 26 27 28 29 30 31 32 33 34 35 36 37 38 39 40 41 42 43 44 45 46 47 48 49 50
000
ASUS43 KFSD 040410
RWRFSD

WEATHER ROUNDUP FOR SE SOUTH DAKOTA/SW MINNESOTA/NW IOWA
NATIONAL WEATHER SERVICE SIOUX FALLS SD
1000 PM CST TUE MAR 03 2015

NOTE: "FAIR" INDICATES FEW OR NO CLOUDS BELOW 12,000 FEET WITH NO
SIGNIFICANT WEATHER AND OR OBSTRUCTIONS TO VISIBILITY.


SDZ038>040-050-052>070-040500-
SOUTHEAST SOUTH DAKOTA

CITY           SKY/WX    TMP DP  RH WIND       PRES   REMARKS
CHAMBERLAIN    CLEAR     10  -1  61 NW6       30.10R WCI   0
HURON          CLEAR     -1  -6  79 NW5       30.11R WCI -11
MADISON        FAIR       1   0  92 NW9       30.05R WCI -14
MITCHELL       PTCLDY     9   2  73 NW7       30.12R WCI  -2
SIOUX FALLS    MOCLDY     7   0  73 NW7       30.08R WCI  -5
WINNER         FAIR      13   1  59 NW10      30.09R WCI   0
YANKTON        PTCLDY    10   1  67 NW3       30.12R
$$

MNZ071-072-080-081-089-090-097-098-040500-
SOUTHWEST MINNESOTA

CITY           SKY/WX    TMP DP  RH WIND       PRES   REMARKS
FAIRMONT       FAIR      10   1  67 W15       30.02R WCI  -6
JACKSON        PTCLDY    10   1  67 NW16      30.03S WCI  -7
LUVERNE        PTCLDY    10   3  72 NW5       30.07R WCI   2
MARSHALL       FAIR       7  -4  61 NW17      30.07R WCI -12
MONTEVIDEO     CLEAR      5   1  85 N14       30.08R WCI -12
PIPESTONE      PTCLDY     7   0  72 NW10      30.03R WCI  -8
REDWOOD FALLS  CLEAR      9  -1  64 NW18G24   30.05R WCI -10
TRACY          CLEAR      9   1  70 NW17      30.06R WCI  -9
WINDOM         PTCLDY     9   1  72 NW12      30.03R WCI  -6
WORTHINGTON    PTCLDY     9   0  66 NW13      30.05R WCI  -7
$$

IAZ001>003-012>014-020>022-031-032-NEZ013-014-SDZ071-040500-
NORTHWEST IOWA

CITY           SKY/WX    TMP DP  RH WIND       PRES   REMARKS
CHEROKEE       CLEAR     11   4  72 N9G16     30.08S WCI  -2
DENISON        CLEAR     12   5  73 N6        30.09R WCI   3
ESTHERVILLE    PTCLDY     9   2  73 NW17      30.04R WCI  -9
LE MARS        CLEAR     10   5  79 NW5       30.10S WCI   2
ORANGE CITY    CLEAR     12   3  67 N9        30.06R WCI   0
SHELDON        FAIR       9   3  78 NW7       30.06R WCI  -3
SIOUX CITY     PTCLDY    16   4  59 N16       30.11R WCI   1
SPENCER        CLEAR     10   2  69 NW12      30.06R WCI  -5
STORM LAKE     CLEAR     10   3  72 N16       30.06R WCI  -7
$$

ABBREVIATIONS USED IN REMARKS
   TC - TEMPERATURE IN CELSIUS
  WCI - WIND CHILL INDEX
   HX - HEAT INDEX
  VSB - VISIBILITY




USA.gov is the U.S. government's official web portal to all federal, state and local government web resources and services.